Погода в Круглом

Россия / Ростовская область     47°00′46″N   39°13′53″E
темп.,
°C
ветер,
м/с
пор.,
м/с
влажн.,
%
обл.,
%
осадки,
мм/ч
давл.,
гПа
погр.,
м
7 мая, пт
пт700:00+14з458368 0.0 101294
03:00+13зюз466829 0.0 1012155
06:00+12зюз3579100 0.0 1013170
09:00+15зюз5670100 0.0 1014590
12:00+17з45634 0.0 1015646
15:00+18з66618 0.0 1016858
18:00+17з45715 0.0 1016381
21:00+14з34866 0.0 101763
8 мая, сб
сб800:00+13ююв2283100 0.0 101752
03:00+12ююв347117 0.0 101690
06:00+12ююв4671100 0.0 1015142
09:00+16ю5767100 0.0 1015403
12:00+20ю5759100 0.0 1013700
15:00+20ююз565699 0.0 1012851
18:00+19юз34665 0.0 1011333
21:00+15зсз337711 0.1 101135
9 мая, вс
вс900:00+15сз4678100 0.1 1010179
03:00+12ссз91286100 1.2 1011734
06:00+9ссз101391100 7.4 1012872
09:00+8ссз101289100 11.9 1014797
12:00+10с7117497 1.1 10161473
15:00+12ссз91267100 1.5 10181489
18:00+13ссз7105718 0.6 10201100
21:00+11ссз69575 0.6 1022908
10 мая, пн
пн1000:00+11ссз7105838 0.0 1022708
03:00+10сз71065100 0.0 1022556
06:00+9ссз71070100 0.1 1022694
09:00+10сз81166100 0.1 10211297
12:00+8сз101386100 3.0 10201270
15:00+8сз101391100 9.5 10181195
18:00+9сз81090100 1.6 1016726
21:00+9ссз81193100 7.8 1015692
11 мая, вт
вт1100:00+10св6993100 2.4 1014435
03:00+9с2494100 4.8 1014231
06:00+11с61395100 2.2 1014830
09:00+12ссв111689100 3.2 10131054
12:00+11св8107969 0.2 1016872
15:00+12ссв7107069 0.3 10171128
18:00+11всв9108335 0.3 1018839
21:00+9св8128360 0.4 1020832